TimePDT,TemperatureF,Dew PointF,Humidity,Sea Level PressureIn,VisibilityMPH,Wind Direction,Wind SpeedMPH,Gust SpeedMPH,PrecipitationIn,Events,Conditions,WindDirDegrees,DateUTC
12:10 AM,46.4,37.4,71,30.05,10.0,WNW,5.8,-,N/A,,Clear,290,2012-10-10 07:10:00
12:30 AM,46.4,37.4,71,30.05,10.0,West,3.5,-,N/A,,Clear,270,2012-10-10 07:30:00
12:50 AM,44.6,37.4,76,30.04,10.0,WNW,3.5,-,N/A,,Clear,290,2012-10-10 07:50:00
1:10 AM,44.6,37.4,76,30.05,10.0,West,4.6,-,N/A,,Clear,270,2012-10-10 08:10:00
1:30 AM,44.6,37.4,76,30.05,10.0,West,5.8,-,N/A,,Clear,260,2012-10-10 08:30:00
1:50 AM,44.6,37.4,76,30.05,10.0,West,3.5,-,N/A,,Clear,280,2012-10-10 08:50:00
2:10 AM,44.6,37.4,76,30.05,10.0,West,5.8,-,N/A,,Clear,280,2012-10-10 09:10:00
2:30 AM,44.6,37.4,76,30.05,10.0,West,3.5,-,N/A,,Clear,270,2012-10-10 09:30:00
2:50 AM,44.6,37.4,76,30.05,10.0,West,4.6,-,N/A,,Clear,280,2012-10-10 09:50:00
3:10 AM,44.6,37.4,76,30.05,10.0,Calm,Calm,-,N/A,,Clear,0,2012-10-10 10:10:00
3:30 AM,44.6,37.4,76,30.05,10.0,West,3.5,-,N/A,,Clear,260,2012-10-10 10:30:00
3:50 AM,44.6,37.4,76,30.05,10.0,West,4.6,-,N/A,,Clear,280,2012-10-10 10:50:00
4:10 AM,44.6,37.4,76,30.05,10.0,West,3.5,-,N/A,,Clear,280,2012-10-10 11:10:00
4:30 AM,44.6,37.4,76,30.05,10.0,West,3.5,-,N/A,,Clear,280,2012-10-10 11:30:00
4:50 AM,44.6,37.4,76,30.04,10.0,West,3.5,-,N/A,,Clear,280,2012-10-10 11:50:00
5:10 AM,44.6,37.4,76,30.05,10.0,Calm,Calm,-,N/A,,Clear,0,2012-10-10 12:10:00
5:30 AM,46.4,39.2,76,30.05,10.0,West,4.6,-,N/A,,Clear,270,2012-10-10 12:30:00
5:50 AM,46.4,39.2,76,30.05,10.0,Calm,Calm,-,N/A,,Clear,0,2012-10-10 12:50:00
6:10 AM,46.4,39.2,76,30.05,10.0,WNW,3.5,-,N/A,,Clear,300,2012-10-10 13:10:00
6:30 AM,46.4,39.2,76,30.05,10.0,Calm,Calm,-,N/A,,Clear,0,2012-10-10 13:30:00
6:50 AM,46.4,39.2,76,30.05,10.0,WNW,3.5,-,N/A,,Clear,290,2012-10-10 13:50:00
7:10 AM,46.4,39.2,76,30.05,10.0,Calm,Calm,-,N/A,,Clear,0,2012-10-10 14:10:00
7:30 AM,46.4,39.2,76,30.05,10.0,West,3.5,-,N/A,,Clear,280,2012-10-10 14:30:00
7:50 AM,46.4,39.2,76,30.04,10.0,Calm,Calm,-,N/A,,Clear,0,2012-10-10 14:50:00
8:10 AM,46.4,39.2,76,30.04,10.0,West,4.6,-,N/A,,Clear,260,2012-10-10 15:10:00
8:30 AM,46.4,41.0,81,30.05,10.0,Calm,Calm,-,N/A,,Clear,0,2012-10-10 15:30:00
8:50 AM,48.2,41.0,76,30.04,10.0,Calm,Calm,-,N/A,,Clear,0,2012-10-10 15:50:00
9:10 AM,50.0,41.0,71,30.04,10.0,Calm,Calm,-,N/A,,Clear,0,2012-10-10 16:10:00
9:30 AM,50.0,41.0,71,30.04,10.0,Calm,Calm,-,N/A,,Clear,0,2012-10-10 16:30:00
9:50 AM,53.6,41.0,62,30.04,10.0,Calm,Calm,-,N/A,,Clear,0,2012-10-10 16:50:00
10:10 AM,55.4,41.0,58,30.03,10.0,ENE,3.5,-,N/A,,Clear,60,2012-10-10 17:10:00
10:30 AM,57.2,39.2,51,30.03,10.0,Calm,Calm,-,N/A,,Clear,0,2012-10-10 17:30:00
10:50 AM,57.2,39.2,51,30.02,10.0,Calm,Calm,-,N/A,,Clear,0,2012-10-10 17:50:00
11:10 AM,60.8,39.2,45,30.02,10.0,ENE,3.5,-,N/A,,Clear,60,2012-10-10 18:10:00
11:30 AM,62.6,41.0,45,30.01,10.0,ENE,3.5,-,N/A,,Clear,70,2012-10-10 18:30:00
11:50 AM,62.6,42.8,48,30.00,10.0,Calm,Calm,-,N/A,,Clear,0,2012-10-10 18:50:00
12:10 PM,64.4,41.0,42,29.99,10.0,Calm,Calm,-,N/A,,Clear,0,2012-10-10 19:10:00
12:30 PM,66.2,39.2,37,29.98,10.0,Calm,Calm,-,N/A,,Clear,0,2012-10-10 19:30:00
12:50 PM,68.0,41.0,37,29.97,10.0,NE,3.5,-,N/A,,Clear,50,2012-10-10 19:50:00
1:10 PM,71.6,41.0,33,29.96,10.0,East,3.5,-,N/A,,Clear,100,2012-10-10 20:10:00
1:30 PM,71.6,42.8,35,29.94,10.0,Calm,Calm,-,N/A,,Clear,0,2012-10-10 20:30:00
1:50 PM,73.4,41.0,31,29.93,10.0,ESE,3.5,-,N/A,,Clear,120,2012-10-10 20:50:00
2:10 PM,75.2,41.0,29,29.92,10.0,Calm,Calm,-,N/A,,Clear,0,2012-10-10 21:10:00
2:30 PM,75.2,39.2,27,29.91,10.0,Calm,Calm,-,N/A,,Clear,0,2012-10-10 21:30:00
2:50 PM,77.0,37.4,24,29.90,10.0,SSE,4.6,-,N/A,,Clear,150,2012-10-10 21:50:00
3:10 PM,80.6,32.0,17,29.90,10.0,Calm,Calm,-,N/A,,Clear,0,2012-10-10 22:10:00
3:30 PM,80.6,32.0,17,29.89,10.0,Calm,Calm,-,N/A,,Clear,0,2012-10-10 22:30:00
3:50 PM,80.6,33.8,18,29.89,10.0,South,4.6,-,N/A,,Clear,170,2012-10-10 22:50:00
4:10 PM,80.6,32.0,17,29.89,10.0,SSE,5.8,-,N/A,,Clear,160,2012-10-10 23:10:00
4:30 PM,80.6,32.0,17,29.88,10.0,SSW,4.6,-,N/A,,Clear,210,2012-10-10 23:30:00
4:50 PM,80.6,32.0,17,29.88,10.0,South,8.1,-,N/A,,Clear,170,2012-10-10 23:50:00
5:10 PM,78.8,32.0,18,29.88,10.0,South,4.6,-,N/A,,Clear,180,2012-10-11 00:10:00
5:50 PM,75.2,35.6,24,29.88,10.0,Calm,Calm,-,N/A,,Clear,0,2012-10-11 00:50:00
6:10 PM,73.4,35.6,25,29.88,10.0,Calm,Calm,-,N/A,,Clear,0,2012-10-11 01:10:00
6:30 PM,68.0,39.2,35,29.89,10.0,NNW,5.8,-,N/A,,Clear,330,2012-10-11 01:30:00
6:50 PM,66.2,39.2,37,29.89,10.0,WNW,5.8,-,N/A,,Clear,300,2012-10-11 01:50:00
7:10 PM,66.2,37.4,35,29.91,10.0,Calm,Calm,-,N/A,,Clear,0,2012-10-11 02:10:00
7:30 PM,62.6,37.4,39,29.91,10.0,West,5.8,-,N/A,,Clear,270,2012-10-11 02:30:00
7:50 PM,62.6,35.6,37,29.91,10.0,West,5.8,-,N/A,,Clear,270,2012-10-11 02:50:00
8:10 PM,59.0,37.4,45,29.92,10.0,West,3.5,-,N/A,,Clear,280,2012-10-11 03:10:00
8:30 PM,57.2,37.4,48,29.92,10.0,Calm,Calm,-,N/A,,Clear,0,2012-10-11 03:30:00
8:50 PM,55.4,37.4,51,29.93,10.0,West,4.6,-,N/A,,Clear,280,2012-10-11 03:50:00
9:10 PM,55.4,35.6,47,29.94,10.0,West,3.5,-,N/A,,Clear,270,2012-10-11 04:10:00
9:30 PM,53.6,35.6,51,29.95,10.0,West,4.6,-,N/A,,Clear,270,2012-10-11 04:30:00
9:50 PM,53.6,35.6,51,29.96,10.0,West,4.6,-,N/A,,Clear,260,2012-10-11 04:50:00
10:10 PM,53.6,35.6,51,29.97,10.0,West,5.8,-,N/A,,Clear,280,2012-10-11 05:10:00
10:30 PM,53.6,35.6,51,29.97,10.0,West,5.8,-,N/A,,Clear,270,2012-10-11 05:30:00
11:30 PM,50.0,35.6,58,29.99,10.0,West,3.5,-,N/A,,Clear,280,2012-10-11 06:30:00
11:50 PM,50.0,35.6,58,29.99,10.0,West,3.5,-,N/A,,Clear,280,2012-10-11 06:50:00